パンスターズ彗星

C/2013 G3 ( PanSTARRS )

English version
Home page
Updated on March 3, 2018

---------------------------------------------------------------------

・ プロフィール

発見日 2013年4月10日
発見光度 20.7等
発見者 Pan-STARRS 1 telescope (Haleakala)

・ 写真集

・ 軌道要素

Epoch 2014 Oct. 30.0 TT = JDT 2456960.5
T 2014 Nov. 15.19229 TT                                 MPCW
q   3.8521988            (2000.0)            P               Q
z  -0.0001308      Peri.   76.49733     -0.00980045     +0.90462369
 +/-0.0000004      Node   208.12669     -0.78719342     +0.25578993
e   1.0005040      Incl.   64.66970     +0.61662830     +0.34092154
From 876 observations 2013 Apr. 10-2016 Dec. 23, mean residual 0".6.

・ 星図

・ 光度変化

        m1 = 8.0 + 5 logΔ + 10.0 log r

---------------------------------------------------------------------

軌道要素はM.P.E.C. 2017-A77に掲載されたものです。
星図はステラナビゲータ Ver.8 (アストロアーツ) で作成したものです。
光度グラフはComet for Windowsで作成したものです。

---------------------------------------------------------------------

Copyright(C) Seiichi Yoshida (comet@aerith.net). All rights reserved.